#timestamp,LO_Frequency,Hit 
1502798415.9,286046996.1,N
1502798435.7,286046996.0,N
1502798455.6,286046994.2,N
1502798475.4,286046993.5,N
1502798495.2,286046995.2,N
1502798515.1,286046997.5,N
1502798516.0,286046997.5,N
1502798535.8,286046997.6,N
1502798555.6,286046995.4,N
1502798575.4,286046994.9,N
1502798595.3,286046995.3,Y
1502798615.1,286046999.4,N
1502798635.8,286046996.6,N
1502798655.7,286046997.5,N
1502798675.5,286046995.3,Y
1502798695.3,286047000.6,N
1502798715.2,286046999.9,N
1502798735.0,286047000.5,N
1502798735.9,286047000.5,N
1502798755.7,286047000.1,N
1502798775.6,286047002.5,N
1502798795.4,286047002.6,N
1502798815.2,286047001.7,N
1502798835.1,286047002.0,N
1502798836.0,286047002.0,N
1502798855.8,286047002.1,N
1502798875.6,286046999.9,N
1502798895.5,286046998.6,N
1502798915.3,286046996.5,N
1502798935.1,286046997.0,N
1502798955.8,286046995.2,N
1502798975.7,286046996.0,N
1502798995.5,286046996.4,N
1502799015.3,286046995.5,N
1502799035.2,286046997.2,N
1502799055.9,286046997.7,N
1502799075.7,286046996.8,N
1502799095.6,286046995.6,N
1502799115.4,286046994.0,N
1502799135.2,286046991.8,Y
1502799155.1,286046994.1,N
1502799156.0,286046994.1,N
1502799175.8,286046992.1,N
1502799195.6,286046992.4,N
1502799215.5,286046992.2,Y
1502799235.3,286046995.9,N
1502799255.1,286046995.6,N
1502799275.9,286046997.8,N
1502799295.7,286046995.3,N
1502799315.5,286046993.5,Y
1502799335.4,286047000.9,N
1502799355.2,286047000.9,N
1502799375.0,286046999.9,N
1502799375.9,286046999.9,N
1502799395.8,286047000.7,N
1502799415.6,286047000.2,N
1502799435.4,286046998.7,N
1502799455.2,286046998.6,N
1502799475.1,286047000.6,N
1502799476.0,286047000.6,N
1502799495.8,286046998.1,N
1502799515.6,286046999.4,N
1502799535.5,286047001.0,N
1502799555.3,286046999.7,N
1502799575.1,286046998.5,N
1502799595.9,286046999.3,N
1502799615.7,286046998.6,N
1502799635.5,286046999.6,N
1502799655.4,286046996.5,N
1502799675.2,286046998.6,N
1502799695.0,286046999.2,N
1502799695.9,286046999.2,N
1502799715.7,286046999.0,N
1502799735.6,286046997.0,N
1502799755.4,286046998.4,N
1502799775.2,286046998.9,N
1502799795.1,286046998.6,N
1502799796.0,286046998.6,N
1502799815.8,286046998.1,N
1502799835.6,286047000.6,N
1502799855.5,286047001.1,N
1502799875.3,286046998.5,N
1502799895.1,286046996.9,N
1502799915.9,286046996.6,N
1502799935.7,286046995.3,Y
1502799955.5,286046998.8,N
1502799975.4,286046999.5,N
1502799995.2,286047001.2,N
1502800015.0,286047000.6,N
1502800015.9,286047000.6,N
1502800035.7,286047001.0,N
1502800055.6,286046999.9,N
1502800075.4,286047000.7,N
1502800095.2,286047000.8,N
1502800115.1,286046998.6,N
1502800116.0,286046998.6,N
1502800135.8,286046999.4,N
1502800155.6,286046996.5,N
1502800175.5,286046998.2,N
1502800195.3,286046998.9,N
1502800215.1,286046998.1,N
1502800235.9,286046999.1,N
1502800255.7,286047000.8,N
1502800275.5,286047000.1,N
1502800295.3,286047002.6,N
1502800315.2,286047002.0,N
1502800335.9,286047002.4,N
1502800355.7,286047000.1,N
1502800375.6,286047004.2,N
1502800395.4,286047001.4,N
1502800415.2,286047003.3,N
1502800435.1,286047003.0,N
1502800436.0,286047003.0,N
1502800455.8,286047003.1,N
1502800475.6,286047005.5,N
1502800495.5,286047003.0,N
1502800515.3,286047004.8,N
1502800535.1,286047007.6,Y
1502800555.9,286047003.9,N
1502800575.7,286047001.7,N
1502800595.5,286047002.8,N
1502800615.3,286046999.7,N
1502800635.2,286047001.0,N
1502800655.0,286047001.2,N
1502800655.9,286047001.2,N
1502800675.7,286047000.8,N
1502800695.6,286047000.9,N
1502800715.4,286046997.2,N
1502800735.2,286046999.2,N
1502800755.1,286046999.0,N
1502800756.0,286046999.0,N
1502800775.8,286046996.6,N
1502800795.6,286046997.8,N
1502800815.5,286046999.1,N
1502800835.3,286046997.9,N
1502800855.1,286046997.7,N
1502800875.8,286046996.0,N
1502800895.7,286046993.9,N
1502800915.5,286046993.4,N
1502800935.3,286046993.4,N
1502800955.2,286046993.3,N
1502800975.9,286046996.2,N
1502800995.7,286046994.0,N
1502801015.6,286046993.4,N
1502801035.4,286046993.5,N
1502801055.2,286046993.6,N
1502801075.1,286046995.7,N
1502801076.0,286046995.7,N
1502801095.8,286046995.4,N
1502801115.6,286046995.7,N
1502801135.5,286046996.3,N
1502801155.3,286046995.6,N
1502801175.1,286046995.6,N
1502801195.8,286046997.1,N
1502801215.7,286046995.5,N
1502801235.5,286046995.2,N
1502801255.3,286046993.7,Y
1502801275.2,286046996.6,N
1502801295.9,286046997.3,N
1502801315.7,286046999.5,N
1502801335.6,286046997.7,N
1502801355.4,286046999.5,N
1502801375.2,286046998.0,N
1502801395.1,286046995.1,N
1502801396.0,286046995.1,N
1502801415.8,286046999.3,N
1502801435.6,286047000.4,N
1502801455.5,286046999.7,N
1502801475.3,286046999.7,N
1502801495.1,286047004.3,N
1502801515.8,286047003.7,N
1502801535.7,286047005.4,N
1502801555.5,286047007.5,N
1502801575.3,286047003.0,N
1502801595.2,286047007.5,N
1502801615.9,286047006.7,N
1502801635.7,286047006.7,N
1502801655.6,286047007.6,N
1502801675.4,286047007.0,N
1502801695.2,286047007.5,N
1502801715.0,286047007.3,N
1502801716.0,286047007.3,N
1502801735.8,286047006.1,N
1502801755.6,286047007.5,N
1502801775.4,286047007.0,N
1502801795.3,286047007.1,N
1502801815.1,286047004.6,N
1502801835.8,286047007.3,N
1502801855.7,286047007.4,N
1502801875.5,286047006.3,N
1502801895.3,286047007.2,N
1502801915.2,286047005.4,N
1502801935.9,286047004.6,N
1502801955.7,286047005.0,Y
1502801975.6,286046996.9,N
1502801995.4,286046999.3,N
